• In Netherlands
  • List of Countries
  • For 7 days
  • Water Temperature
  • Satellite Maps
  • Weather Map
  • Weather Widgets
  • user-avatar
    Login

    Hourly Weather Sherpur

    Today, 26 May, Saturday

    Time Temperature Precipitation Wind Pressure Humidity
    00:00 +17°C° 0 mm 2 mps 609 mmHg 32%
    01:00 +16°C° 0 mm 2 mps 609 mmHg 33%
    02:00 +16°C° 0 mm 2 mps 609 mmHg 34%
    03:00 +16°C° 0 mm 2 mps 608 mmHg 35%
    04:00 +15°C° 0 mm 1 mps 608 mmHg 36%
    05:00 +15°C° 0 mm 2 mps 608 mmHg 38%
    06:00 +16°C° 0 mm 2 mps 608 mmHg 35%
    07:00 +17°C° 0 mm 2 mps 609 mmHg 33%
    08:00 +19°C° 0 mm 2 mps 609 mmHg 31%
    09:00 +20°C° 0 mm 2 mps 610 mmHg 29%
    10:00 +21°C° 0 mm 2 mps 610 mmHg 27%
    11:00 +23°C° 0 mm 2 mps 610 mmHg 24%
    12:00 +24°C° 0 mm 2 mps 610 mmHg 23%
    13:00 +25°C° 0 mm 2 mps 610 mmHg 21%
    14:00 +25°C° 0 mm 2 mps 610 mmHg 20%
    15:00 +25°C° 0 mm 2 mps 610 mmHg 20%
    16:00 +25°C° 0 mm 2 mps 610 mmHg 20%
    17:00 +25°C° 0 mm 2 mps 610 mmHg 20%
    18:00 +24°C° 0 mm 2 mps 610 mmHg 24%
    19:00 +23°C° 0 mm 2 mps 610 mmHg 27%
    20:00 +21°C° 0 mm 2 mps 610 mmHg 30%
    21:00 +21°C° 0 mm 2 mps 610 mmHg 33%
    22:00 +20°C° 0 mm 2 mps 610 mmHg 36%
    23:00 +19°C° 0 mm 2 mps 610 mmHg 39%

    Tomorrow, 27 May, Sunday

    Time Temperature Precipitation Wind Pressure Humidity
    00:00 +19°C° 0 mm 2 mps 609 mmHg 41%
    01:00 +19°C° 0 mm 1 mps 609 mmHg 44%
    02:00 +19°C° 0 mm 1 mps 608 mmHg 47%
    03:00 +18°C° 0 mm 1 mps 608 mmHg 48%
    04:00 +18°C° 0 mm 1 mps 608 mmHg 48%
    05:00 +16°C° 0 mm 1 mps 608 mmHg 49%
    06:00 +19°C° 0 mm 1 mps 609 mmHg 43%
    07:00 +20°C° 0 mm 1 mps 610 mmHg 38%
    08:00 +22°C° 0 mm 1 mps 610 mmHg 32%
    09:00 +23°C° 0 mm 2 mps 611 mmHg 29%
    10:00 +24°C° 0 mm 2 mps 611 mmHg 26%
    11:00 +25°C° 0 mm 2 mps 612 mmHg 23%
    12:00 +26°C° 0 mm 2 mps 612 mmHg 21%
    13:00 +27°C° 0 mm 2 mps 612 mmHg 19%
    14:00 +28°C° 0 mm 3 mps 612 mmHg 17%
    15:00 +28°C° 0 mm 3 mps 612 mmHg 16%
    16:00 +28°C° 0 mm 4 mps 612 mmHg 16%
    17:00 +28°C° 0 mm 4 mps 611 mmHg 16%
    18:00 +27°C° 0 mm 4 mps 611 mmHg 18%
    19:00 +25°C° 0 mm 4 mps 611 mmHg 20%
    20:00 +24°C° 0 mm 3 mps 611 mmHg 23%
    21:00 +22°C° 0 mm 3 mps 611 mmHg 25%
    22:00 +21°C° 0 mm 3 mps 611 mmHg 27%
    23:00 +20°C° 0 mm 3 mps 611 mmHg 28%

    Day after tomorrow, 28 May, Monday

    Time Temperature Precipitation Wind Pressure Humidity
    00:00 +19°C° 0 mm 3 mps 611 mmHg 29%
    01:00 +19°C° 0 mm 3 mps 611 mmHg 29%
    02:00 +18°C° 0 mm 3 mps 610 mmHg 30%
    03:00 +18°C° 0 mm 3 mps 610 mmHg 30%
    04:00 +17°C° 0 mm 3 mps 610 mmHg 30%
    05:00 +17°C° 0 mm 3 mps 610 mmHg 31%
    06:00 +18°C° 0 mm 4 mps 611 mmHg 29%
    07:00 +19°C° 0 mm 4 mps 611 mmHg 28%
    08:00 +20°C° 0 mm 4 mps 612 mmHg 27%
    09:00 +21°C° 0 mm 4 mps 612 mmHg 25%
    10:00 +22°C° 0 mm 5 mps 612 mmHg 24%
    11:00 +25°C° 0 mm 5 mps 612 mmHg 23%
    12:00 +25°C° 0 mm 5 mps 612 mmHg 22%
    13:00 +26°C° 0 mm 6 mps 612 mmHg 21%
    14:00 +26°C° 0 mm 6 mps 611 mmHg 20%
    15:00 +26°C° 0 mm 6 mps 611 mmHg 21%
    16:00 +24°C° 0 mm 7 mps 610 mmHg 22%
    17:00 +24°C° 0 mm 7 mps 610 mmHg 23%
    18:00 +22°C° 0 mm 6 mps 610 mmHg 26%
    19:00 +21°C° 0 mm 6 mps 609 mmHg 30%
    20:00 +19°C° 0 mm 5 mps 609 mmHg 33%
    21:00 +19°C° 0 mm 4 mps 609 mmHg 34%
    22:00 +18°C° 0 mm 4 mps 609 mmHg 36%
    23:00 +17°C° 0 mm 3 mps 609 mmHg 38%

    29 May, Tuesday

    Time Temperature Precipitation Wind Pressure Humidity
    00:00 +16°C° 0 mm 3 mps 608 mmHg 38%
    01:00 +16°C° 0 mm 3 mps 608 mmHg 39%
    02:00 +14°C° 0 mm 3 mps 607 mmHg 39%
    03:00 +14°C° 0 mm 3 mps 607 mmHg 39%
    04:00 +13°C° 0 mm 3 mps 607 mmHg 39%
    05:00 +13°C° 0 mm 3 mps 607 mmHg 39%
    06:00 +14°C° 0 mm 3 mps 607 mmHg 34%
    07:00 +17°C° 0 mm 2 mps 608 mmHg 29%
    08:00 +18°C° 0 mm 2 mps 608 mmHg 24%
    09:00 +20°C° 0 mm 2 mps 609 mmHg 20%
    10:00 +21°C° 0 mm 2 mps 609 mmHg 17%
    11:00 +24°C° 0 mm 2 mps 609 mmHg 13%
    12:00 +25°C° 0 mm 2 mps 609 mmHg 12%
    13:00 +26°C° 0 mm 2 mps 609 mmHg 11%
    14:00 +27°C° 0 mm 2 mps 609 mmHg 9%
    15:00 +27°C° 0 mm 3 mps 609 mmHg 9%
    16:00 +27°C° 0 mm 3 mps 609 mmHg 9%
    17:00 +28°C° 0 mm 3 mps 609 mmHg 9%
    18:00 +26°C° 0 mm 3 mps 609 mmHg 11%
    19:00 +24°C° 0 mm 3 mps 609 mmHg 13%
    20:00 +22°C° 0 mm 3 mps 609 mmHg 15%
    21:00 +21°C° 0 mm 3 mps 609 mmHg 17%
    22:00 +20°C° 0 mm 3 mps 609 mmHg 19%
    23:00 +19°C° 0 mm 3 mps 609 mmHg 21%

    30 May, Wednesday

    Time Temperature Precipitation Wind Pressure Humidity
    00:00 +18°C° 0 mm 3 mps 608 mmHg 22%
    01:00 +17°C° 0 mm 3 mps 608 mmHg 24%
    02:00 +17°C° 0 mm 3 mps 608 mmHg 26%
    03:00 +16°C° 0 mm 3 mps 607 mmHg 27%
    04:00 +16°C° 0 mm 3 mps 607 mmHg 29%
    05:00 +14°C° 0 mm 3 mps 607 mmHg 30%
    06:00 +17°C° 0 mm 3 mps 608 mmHg 27%
    07:00 +19°C° 0 mm 3 mps 609 mmHg 25%
    08:00 +20°C° 0 mm 3 mps 610 mmHg 22%
    09:00 +22°C° 0 mm 3 mps 611 mmHg 19%
    10:00 +24°C° 0 mm 3 mps 611 mmHg 16%
    11:00 +26°C° 0 mm 3 mps 612 mmHg 14%
    12:00 +27°C° 0 mm 3 mps 612 mmHg 13%
    13:00 +28°C° 0 mm 4 mps 612 mmHg 12%
    14:00 +29°C° 0 mm 4 mps 612 mmHg 11%
    15:00 +28°C° 0 mm 4 mps 611 mmHg 12%
    16:00 +28°C° 0 mm 5 mps 611 mmHg 13%
    17:00 +28°C° 0 mm 5 mps 611 mmHg 14%
    18:00 +26°C° 0 mm 4 mps 611 mmHg 17%
    19:00 +25°C° 0 mm 4 mps 611 mmHg 20%
    20:00 +22°C° 0 mm 3 mps 611 mmHg 23%
    21:00 +21°C° 0 mm 3 mps 611 mmHg 24%
    22:00 +20°C° 0 mm 3 mps 611 mmHg 26%
    23:00 +20°C° 0 mm 2 mps 610 mmHg 28%

    31 May, Thursday

    Time Temperature Precipitation Wind Pressure Humidity
    00:00 +19°C° 0 mm 2 mps 610 mmHg 29%
    01:00 +19°C° 0 mm 2 mps 609 mmHg 29%
    02:00 +18°C° 0 mm 2 mps 609 mmHg 30%
    03:00 +18°C° 0 mm 2 mps 609 mmHg 30%
    04:00 +17°C° 0 mm 2 mps 609 mmHg 30%
    05:00 +17°C° 0 mm 2 mps 608 mmHg 30%
    06:00 +19°C° 0 mm 2 mps 609 mmHg 27%
    07:00 +20°C° 0 mm 2 mps 610 mmHg 24%
    08:00 +23°C° 0 mm 1 mps 611 mmHg 20%
    09:00 +24°C° 0 mm 1 mps 611 mmHg 18%
    10:00 +26°C° 0 mm 2 mps 612 mmHg 16%
    11:00 +27°C° 0 mm 2 mps 612 mmHg 15%
    12:00 +28°C° 0 mm 2 mps 612 mmHg 14%
    13:00 +29°C° 0 mm 2 mps 612 mmHg 13%
    14:00 +30°C° 0 mm 3 mps 612 mmHg 12%
    15:00 +30°C° 0 mm 3 mps 612 mmHg 13%
    16:00 +30°C° 0 mm 3 mps 612 mmHg 13%
    17:00 +30°C° 0 mm 3 mps 612 mmHg 13%
    18:00 +28°C° 0 mm 3 mps 611 mmHg 17%
    19:00 +27°C° 0 mm 3 mps 611 mmHg 20%
    20:00 +25°C° 0 mm 2 mps 611 mmHg 23%
    21:00 +24°C° 0 mm 2 mps 611 mmHg 26%
    22:00 +24°C° 0 mm 2 mps 611 mmHg 28%
    23:00 +23°C° 0 mm 2 mps 611 mmHg 30%
    Show more